Simultaneous Nadir Overpasses (SNOs) Predictions

Prediction of SNOs between FY3D and AQUA Satellite Orbit:

Table of predicted SNOs for the next 14.0 days since TLE Epoch: 4/10/2019
Index Date (FY3D) Time (FY3D) Lat,Lon (FY3D) SZA (FY3D ) Date (AQUA) Time (AQUA) Lat,Lon (AQUA) SZA (AQUA ) Distance(km) Time Diff (sec)
1 04/11/2019 08:27:40 -66.42, 95.97 80.72 04/11/2019 08:28:45 -66.42, 95.98 80.79 0.14 65
2 04/11/2019 09:17:05 70.62, -91.15 94.93 04/11/2019 09:16:55 70.61, -91.20 94.96 2.01 10
3 04/14/2019 00:43:57 -66.96,-147.55 82.25 04/14/2019 00:45:03 -66.95,-147.59 82.31 1.87 66
4 04/14/2019 01:33:42 70.09, 23.89 94.51 04/14/2019 01:33:32 70.09, 23.92 94.51 0.91 10
5 04/16/2019 17:00:35 -66.41, -32.28 82.66 04/16/2019 17:01:41 -66.41, -32.27 82.73 0.38 66
6 04/16/2019 17:50:00 70.61, 140.59 93.00 04/16/2019 17:49:51 70.60, 140.55 93.02 1.65 9
7 04/19/2019 09:17:11 -65.96, 83.12 83.14 04/19/2019 09:18:17 -65.97, 83.17 83.24 2.24 66
8 04/19/2019 10:06:35 70.23,-104.13 92.45 04/19/2019 10:06:26 70.23,-104.12 92.46 0.41 9
9 04/22/2019 01:33:23 -66.83,-160.06 84.94 04/22/2019 01:34:30 -66.82,-160.08 85.00 0.89 67
10 04/22/2019 02:23:08 69.96, 11.33 91.82 04/22/2019 02:22:59 69.96, 11.38 91.81 2.04 9




NCC Satellite Simultaneous Nadir Overpasses (SNOs) Prediction Service
